Time,TemperatureF,DewpointF,PressureIn,WindDirection,WindDirectionDegrees,WindSpeedMPH,WindSpeedGustMPH,Humidity,HourlyPrecipIn,Conditions,Clouds,dailyrainin,SoftwareType,DateUTC
2013-03-20 00:01:00,63.5,48.9,30.11,North,356,3.5,3.5,59,0.00,OVC,,0.00,WeatherDisplay:10.37,2013-03-20 07:01:00,
2013-03-20 00:06:00,63.1,49.0,30.10,NNE,16,3.5,3.5,60,0.00,OVC,,0.00,WeatherDisplay:10.37,2013-03-20 07:06:00,
2013-03-20 00:11:00,62.8,48.3,30.10,NW,314,13.8,13.8,59,0.00,OVC,,0.00,WeatherDisplay:10.37,2013-03-20 07:11:00,
2013-03-20 00:16:00,62.4,48.3,30.10,North,9,4.6,4.6,60,0.00,OVC,,0.00,WeatherDisplay:10.37,2013-03-20 07:16:00,
2013-03-20 00:21:00,62.2,48.6,30.09,NNE,15,3.5,3.5,61,0.00,OVC,,0.00,WeatherDisplay:10.37,2013-03-20 07:21:00,
2013-03-20 00:26:00,62.1,48.5,30.09,West,278,6.9,6.9,61,0.00,OVC,,0.00,WeatherDisplay:10.37,2013-03-20 07:26:00,
2013-03-20 00:31:00,62.0,48.4,30.09,NW,316,5.8,5.8,61,0.00,OVC,,0.00,WeatherDisplay:10.37,2013-03-20 07:31:00,
2013-03-20 00:36:00,61.8,48.2,30.09,NNE,12,4.6,4.6,61,0.00,OVC,,0.00,WeatherDisplay:10.37,2013-03-20 07:36:00,
2013-03-20 00:41:00,61.7,48.5,30.08,NW,313,4.0,4.0,62,0.00,OVC,,0.00,WeatherDisplay:10.37,2013-03-20 07:41:00,
2013-03-20 00:46:00,61.5,48.4,30.08,NW,322,6.9,6.9,62,0.00,OVC,,0.00,WeatherDisplay:10.37,2013-03-20 07:46:00,
2013-03-20 00:51:00,61.3,48.6,30.08,WNW,302,4.0,4.0,63,0.00,OVC,,0.00,WeatherDisplay:10.37,2013-03-20 07:51:00,
2013-03-20 00:56:00,61.1,48.4,30.07,NNE,26,4.6,4.6,63,0.00,OVC,,0.00,WeatherDisplay:10.37,2013-03-20 07:56:00,
2013-03-20 01:01:00,61.0,48.7,30.07,NW,307,5.0,5.0,64,0.00,OVC,,0.00,WeatherDisplay:10.37,2013-03-20 08:01:00,
2013-03-20 01:06:00,60.8,48.5,30.07,WNW,302,1.2,1.2,64,0.00,OVC,,0.00,WeatherDisplay:10.37,2013-03-20 08:06:00,
2013-03-20 01:11:00,60.6,48.8,30.07,NNW,347,0.0,0.0,65,0.00,OVC,,0.00,WeatherDisplay:10.37,2013-03-20 08:11:00,
2013-03-20 01:16:00,60.4,48.6,30.07,NNW,330,2.3,2.3,65,0.00,OVC,,0.00,WeatherDisplay:10.37,2013-03-20 08:16:00,
2013-03-20 01:21:00,60.1,48.7,30.07,NNW,345,1.2,1.2,66,0.00,OVC,,0.00,WeatherDisplay:10.37,2013-03-20 08:21:00,
2013-03-20 01:26:00,59.9,48.9,30.07,NW,304,1.2,1.2,67,0.00,OVC,,0.00,WeatherDisplay:10.37,2013-03-20 08:26:00,
2013-03-20 01:31:00,59.6,48.6,30.07,NW,307,0.0,0.0,67,0.00,BKN,,0.00,WeatherDisplay:10.37,2013-03-20 08:31:00,
2013-03-20 01:36:00,59.3,48.7,30.07,NNW,336,0.0,0.0,68,0.00,BKN,,0.00,WeatherDisplay:10.37,2013-03-20 08:36:00,
2013-03-20 01:41:00,59.0,48.8,30.06,NNW,333,0.0,0.0,69,0.00,BKN,,0.00,WeatherDisplay:10.37,2013-03-20 08:41:00,
2013-03-20 01:46:00,58.7,48.9,30.06,NNW,333,0.0,0.0,70,0.00,BKN,,0.00,WeatherDisplay:10.37,2013-03-20 08:46:00,
2013-03-20 01:51:00,58.5,49.1,30.06,NNW,333,0.0,0.0,71,0.00,BKN,,0.00,WeatherDisplay:10.37,2013-03-20 08:51:00,
2013-03-20 01:56:00,58.2,48.8,30.06,NNW,333,1.2,0.0,71,0.00,BKN,,0.00,WeatherDisplay:10.37,2013-03-20 08:56:00,
2013-03-20 02:01:00,58.0,49.0,30.05,NNW,333,0.0,0.0,72,0.00,CLR,,0.00,WeatherDisplay:10.37,2013-03-20 09:01:00,
2013-03-20 02:06:00,57.9,49.3,30.05,NNW,333,0.0,0.0,73,0.00,CLR,,0.00,WeatherDisplay:10.37,2013-03-20 09:06:00,
2013-03-20 02:11:00,57.7,49.1,30.05,NNW,333,0.0,0.0,73,0.00,CLR,,0.00,WeatherDisplay:10.37,2013-03-20 09:11:00,
2013-03-20 02:16:00,57.4,48.8,30.05,NNW,333,0.0,0.0,73,0.00,CLR,,0.00,WeatherDisplay:10.37,2013-03-20 09:16:00,
2013-03-20 02:21:00,57.2,49.3,30.05,NNW,333,0.0,0.0,75,0.00,CLR,,0.00,WeatherDisplay:10.37,2013-03-20 09:21:00,
2013-03-20 02:26:00,57.0,49.2,30.04,NNW,333,0.0,0.0,75,0.00,CLR,,0.00,WeatherDisplay:10.37,2013-03-20 09:26:00,
2013-03-20 02:31:00,56.9,49.1,30.05,NNW,333,0.0,0.0,75,0.00,CLR,,0.00,WeatherDisplay:10.37,2013-03-20 09:31:00,
2013-03-20 02:36:00,56.6,48.8,30.05,NNW,333,0.0,0.0,75,0.00,CLR,,0.00,WeatherDisplay:10.37,2013-03-20 09:36:00,
2013-03-20 02:41:00,56.5,49.0,30.05,NNW,333,0.0,0.0,76,0.00,CLR,,0.00,WeatherDisplay:10.37,2013-03-20 09:41:00,
2013-03-20 02:46:00,56.3,48.8,30.04,NNW,333,0.0,0.0,76,0.00,CLR,,0.00,WeatherDisplay:10.37,2013-03-20 09:46:00,
2013-03-20 02:51:00,56.2,49.1,30.04,NNW,333,0.0,0.0,77,0.00,CLR,,0.00,WeatherDisplay:10.37,2013-03-20 09:51:00,
2013-03-20 02:56:00,55.9,48.8,30.04,NNW,333,0.0,0.0,77,0.00,CLR,,0.00,WeatherDisplay:10.37,2013-03-20 09:56:00,
2013-03-20 03:01:00,55.7,48.9,30.04,NNW,333,0.0,0.0,78,0.00,CLR,,0.00,WeatherDisplay:10.37,2013-03-20 10:01:00,
2013-03-20 03:06:00,55.6,49.2,30.04,NNW,333,1.2,0.0,79,0.00,CLR,,0.00,WeatherDisplay:10.37,2013-03-20 10:06:00,
2013-03-20 03:11:00,55.5,49.1,30.04,NNW,333,0.0,0.0,79,0.00,CLR,,0.00,WeatherDisplay:10.37,2013-03-20 10:11:00,
2013-03-20 03:16:00,55.5,49.1,30.04,NNW,333,0.0,0.0,79,0.00,CLR,,0.00,WeatherDisplay:10.37,2013-03-20 10:16:00,
2013-03-20 03:21:00,55.4,49.0,30.04,NNW,333,0.0,0.0,79,0.00,CLR,,0.00,WeatherDisplay:10.37,2013-03-20 10:21:00,
2013-03-20 03:26:00,55.3,48.9,30.04,NNW,333,0.0,0.0,79,0.00,CLR,,0.00,WeatherDisplay:10.37,2013-03-20 10:26:00,
2013-03-20 03:31:00,55.3,48.9,30.04,NNW,333,0.0,0.0,79,0.00,CLR,,0.00,WeatherDisplay:10.37,2013-03-20 10:31:00,
2013-03-20 03:36:00,55.2,48.8,30.04,SW,215,1.2,1.2,79,0.00,CLR,,0.00,WeatherDisplay:10.37,2013-03-20 10:36:00,
2013-03-20 03:41:00,55.3,48.9,30.05,South,186,1.2,0.0,79,0.00,CLR,,0.00,WeatherDisplay:10.37,2013-03-20 10:41:00,
2013-03-20 03:46:00,55.2,48.8,30.05,West,271,0.0,0.0,79,0.00,CLR,,0.00,WeatherDisplay:10.37,2013-03-20 10:46:00,
2013-03-20 03:51:00,55.1,49.0,30.05,West,266,0.0,0.0,80,0.00,CLR,,0.00,WeatherDisplay:10.37,2013-03-20 10:51:00,
2013-03-20 03:56:00,54.9,48.8,30.05,SW,226,0.0,0.0,80,0.00,CLR,,0.00,WeatherDisplay:10.37,2013-03-20 10:56:00,
2013-03-20 04:01:00,54.7,48.6,30.05,SW,226,0.0,0.0,80,0.00,CLR,,0.00,WeatherDisplay:10.37,2013-03-20 11:01:00,
2013-03-20 04:06:00,54.6,48.9,30.05,SW,226,0.0,0.0,81,0.00,CLR,,0.00,WeatherDisplay:10.37,2013-03-20 11:06:00,
2013-03-20 04:11:00,54.6,48.9,30.05,SSW,207,1.2,1.2,81,0.00,CLR,,0.00,WeatherDisplay:10.37,2013-03-20 11:11:00,
2013-03-20 04:16:00,54.5,49.1,30.06,SW,215,0.0,0.0,82,0.00,CLR,,0.00,WeatherDisplay:10.37,2013-03-20 11:16:00,
2013-03-20 04:21:00,54.4,49.0,30.06,ESE,122,1.2,1.2,82,0.00,CLR,,0.00,WeatherDisplay:10.37,2013-03-20 11:21:00,
2013-03-20 04:26:00,54.4,49.0,30.06,SE,132,1.2,1.2,82,0.00,CLR,,0.00,WeatherDisplay:10.37,2013-03-20 11:26:00,
2013-03-20 04:31:00,54.3,48.9,30.06,SE,129,1.2,1.2,82,0.00,CLR,,0.00,WeatherDisplay:10.37,2013-03-20 11:31:00,
2013-03-20 04:36:00,54.1,48.7,30.06,ESE,123,1.2,1.2,82,0.00,CLR,,0.00,WeatherDisplay:10.37,2013-03-20 11:36:00,
2013-03-20 04:41:00,54.0,48.6,30.06,ESE,122,1.2,0.0,82,0.00,CLR,,0.00,WeatherDisplay:10.37,2013-03-20 11:41:00,
2013-03-20 04:46:00,53.9,48.5,30.06,SE,129,0.0,0.0,82,0.00,CLR,,0.00,WeatherDisplay:10.37,2013-03-20 11:46:00,
2013-03-20 04:51:00,53.8,48.8,30.06,SE,129,0.0,0.0,83,0.00,CLR,,0.00,WeatherDisplay:10.37,2013-03-20 11:51:00,
2013-03-20 04:56:00,53.7,48.7,30.06,SE,130,1.2,1.2,83,0.00,CLR,,0.00,WeatherDisplay:10.37,2013-03-20 11:56:00,
2013-03-20 05:01:00,53.6,48.6,30.06,SE,130,0.0,0.0,83,0.00,CLR,,0.00,WeatherDisplay:10.37,2013-03-20 12:01:00,
2013-03-20 05:06:00,53.6,48.6,30.06,SE,124,1.2,1.2,83,0.00,CLR,,0.00,WeatherDisplay:10.37,2013-03-20 12:06:00,
2013-03-20 05:11:00,53.5,48.5,30.06,ESE,120,1.2,1.2,83,0.00,CLR,,0.00,WeatherDisplay:10.37,2013-03-20 12:11:00,
2013-03-20 05:16:00,53.6,48.6,30.07,SE,128,1.2,1.2,83,0.00,CLR,,0.00,WeatherDisplay:10.37,2013-03-20 12:16:00,
2013-03-20 05:21:00,53.7,48.7,30.07,SE,126,1.2,1.2,83,0.00,CLR,,0.00,WeatherDisplay:10.37,2013-03-20 12:21:00,
2013-03-20 05:26:00,53.6,48.6,30.07,SE,126,1.2,1.2,83,0.00,CLR,,0.00,WeatherDisplay:10.37,2013-03-20 12:26:00,
2013-03-20 05:31:00,53.7,48.7,30.07,SE,125,1.2,1.2,83,0.00,CLR,,0.00,WeatherDisplay:10.37,2013-03-20 12:31:00,
2013-03-20 05:36:00,53.8,48.4,30.07,SE,128,1.2,0.0,82,0.00,CLR,,0.00,WeatherDisplay:10.37,2013-03-20 12:36:00,
2013-03-20 05:41:00,53.9,48.5,30.07,SE,126,1.2,1.2,82,0.00,CLR,,0.00,WeatherDisplay:10.37,2013-03-20 12:41:00,
2013-03-20 05:46:00,54.0,48.6,30.07,SE,126,0.0,0.0,82,0.00,CLR,,0.00,WeatherDisplay:10.37,2013-03-20 12:46:00,
2013-03-20 05:51:00,54.0,48.6,30.07,SE,126,0.0,0.0,82,0.00,CLR,,0.00,WeatherDisplay:10.37,2013-03-20 12:51:00,
2013-03-20 05:56:00,54.1,48.7,30.07,ESE,122,1.2,1.2,82,0.00,CLR,,0.00,WeatherDisplay:10.37,2013-03-20 12:56:00,
2013-03-20 06:01:00,54.1,48.7,30.07,ESE,123,0.0,0.0,82,0.00,CLR,,0.00,WeatherDisplay:10.37,2013-03-20 13:01:00,
2013-03-20 06:06:00,54.1,48.7,30.07,ESE,122,0.0,0.0,82,0.00,CLR,,0.00,WeatherDisplay:10.37,2013-03-20 13:06:00,
2013-03-20 06:11:00,54.1,48.7,30.07,ESE,122,0.0,0.0,82,0.00,CLR,,0.00,WeatherDisplay:10.37,2013-03-20 13:11:00,
2013-03-20 06:16:00,54.0,48.6,30.07,ESE,122,0.0,0.0,82,0.00,CLR,,0.00,WeatherDisplay:10.37,2013-03-20 13:16:00,
2013-03-20 06:21:00,53.9,48.9,30.07,ESE,122,0.0,0.0,83,0.00,CLR,,0.00,WeatherDisplay:10.37,2013-03-20 13:21:00,
2013-03-20 06:26:00,53.8,48.8,30.07,ESE,122,0.0,0.0,83,0.00,CLR,,0.00,WeatherDisplay:10.37,2013-03-20 13:26:00,
2013-03-20 06:31:00,53.9,48.9,30.07,ESE,122,0.0,0.0,83,0.00,CLR,,0.00,WeatherDisplay:10.37,2013-03-20 13:31:00,
2013-03-20 06:36:00,53.9,48.9,30.08,ESE,122,0.0,0.0,83,0.00,CLR,,0.00,WeatherDisplay:10.37,2013-03-20 13:36:00,
2013-03-20 06:41:00,53.9,48.9,30.08,ESE,122,0.0,0.0,83,0.00,CLR,,0.00,WeatherDisplay:10.37,2013-03-20 13:41:00,
2013-03-20 06:46:00,54.1,49.1,30.07,ESE,123,0.0,0.0,83,0.00,CLR,,0.00,WeatherDisplay:10.37,2013-03-20 13:46:00,
2013-03-20 06:51:00,54.2,49.1,30.07,ESE,122,0.0,0.0,83,0.00,CLR,,0.00,WeatherDisplay:10.37,2013-03-20 13:51:00,
2013-03-20 06:57:00,54.3,49.2,30.07,ESE,122,1.2,0.0,83,0.00,CLR,,0.00,WeatherDisplay:10.37,2013-03-20 13:57:00,
2013-03-20 07:02:00,54.5,49.1,30.08,ESE,122,0.0,0.0,82,0.00,CLR,,0.00,WeatherDisplay:10.37,2013-03-20 14:02:00,
2013-03-20 07:07:00,54.5,49.1,30.08,ESE,122,0.0,0.0,82,0.00,CLR,,0.00,WeatherDisplay:10.37,2013-03-20 14:07:00,
2013-03-20 07:12:00,54.6,49.2,30.08,ESE,122,0.0,0.0,82,0.00,CLR,,0.00,WeatherDisplay:10.37,2013-03-20 14:12:00,
2013-03-20 07:17:00,54.5,49.1,30.08,ESE,123,0.0,0.0,82,0.00,CLR,,0.00,WeatherDisplay:10.37,2013-03-20 14:17:00,
2013-03-20 07:22:00,54.4,49.0,30.07,ESE,123,0.0,0.0,82,0.00,CLR,,0.00,WeatherDisplay:10.37,2013-03-20 14:22:00,
2013-03-20 07:27:00,54.3,49.2,30.07,ESE,123,0.0,0.0,83,0.00,CLR,,0.00,WeatherDisplay:10.37,2013-03-20 14:27:00,
2013-03-20 07:32:00,54.5,49.4,30.07,ESE,122,0.0,0.0,83,0.00,CLR,,0.00,WeatherDisplay:10.37,2013-03-20 14:32:00,
2013-03-20 07:37:00,54.6,49.5,30.07,ESE,122,0.0,0.0,83,0.00,CLR,,0.00,WeatherDisplay:10.37,2013-03-20 14:37:00,
2013-03-20 07:42:00,54.8,49.4,30.07,ESE,123,0.0,0.0,82,0.00,CLR,,0.00,WeatherDisplay:10.37,2013-03-20 14:42:00,
2013-03-20 07:47:00,54.9,49.5,30.07,ESE,122,0.0,0.0,82,0.00,CLR,,0.00,WeatherDisplay:10.37,2013-03-20 14:47:00,
2013-03-20 07:52:00,55.0,49.6,30.07,ESE,123,0.0,0.0,82,0.00,CLR,,0.00,WeatherDisplay:10.37,2013-03-20 14:52:00,
2013-03-20 07:57:00,55.2,49.8,30.08,ESE,123,0.0,0.0,82,0.00,CLR,,0.00,WeatherDisplay:10.37,2013-03-20 14:57:00,
2013-03-20 08:02:00,55.4,50.0,30.08,ESE,122,0.0,0.0,82,0.00,CLR,,0.00,WeatherDisplay:10.37,2013-03-20 15:02:00,
2013-03-20 08:07:00,55.6,50.2,30.08,ESE,122,0.0,0.0,82,0.00,CLR,,0.00,WeatherDisplay:10.37,2013-03-20 15:07:00,
2013-03-20 08:12:00,55.9,50.2,30.08,SE,126,1.2,1.2,81,0.00,CLR,,0.00,WeatherDisplay:10.37,2013-03-20 15:12:00,
2013-03-20 08:17:00,56.3,50.2,30.08,SE,126,1.2,1.2,80,0.00,CLR,,0.00,WeatherDisplay:10.37,2013-03-20 15:17:00,
2013-03-20 08:22:00,56.6,50.2,30.08,SE,126,0.0,0.1,79,0.00,CLR,,0.00,WeatherDisplay:10.37,2013-03-20 15:22:00,
2013-03-20 08:27:00,56.8,50.0,30.08,SE,128,0.0,0.0,78,0.00,CLR,,0.00,WeatherDisplay:10.37,2013-03-20 15:27:00,
2013-03-20 08:32:00,57.1,50.6,30.08,SE,128,0.0,0.0,79,0.00,CLR,,0.00,WeatherDisplay:10.37,2013-03-20 15:32:00,
2013-03-20 08:37:00,57.4,50.6,30.08,SE,125,0.0,0.0,78,0.00,CLR,,0.00,WeatherDisplay:10.37,2013-03-20 15:37:00,
2013-03-20 08:42:00,57.6,50.8,30.08,SE,126,0.0,0.1,78,0.00,CLR,,0.00,WeatherDisplay:10.37,2013-03-20 15:42:00,
2013-03-20 08:47:00,57.9,50.7,30.09,ESE,115,2.3,2.3,77,0.00,CLR,,0.00,WeatherDisplay:10.37,2013-03-20 15:47:00,
2013-03-20 08:52:00,58.1,50.9,30.09,ESE,115,0.0,0.4,77,0.00,CLR,,0.00,WeatherDisplay:10.37,2013-03-20 15:52:00,
2013-03-20 08:57:00,58.3,50.8,30.09,ESE,117,1.2,1.2,76,0.00,CLR,,0.00,WeatherDisplay:10.37,2013-03-20 15:57:00,
2013-03-20 09:02:00,58.6,50.7,30.09,ESE,123,1.2,0.0,75,0.00,CLR,,0.00,WeatherDisplay:10.37,2013-03-20 16:02:00,
2013-03-20 09:07:00,58.8,50.5,30.09,SE,133,1.2,1.2,74,0.00,CLR,,0.00,WeatherDisplay:10.37,2013-03-20 16:07:00,
2013-03-20 09:12:00,59.1,51.2,30.09,SE,131,1.2,0.0,75,0.00,CLR,,0.00,WeatherDisplay:10.37,2013-03-20 16:12:00,
2013-03-20 09:17:00,59.3,51.0,30.09,ESE,102,2.3,2.3,74,0.00,CLR,,0.00,WeatherDisplay:10.37,2013-03-20 16:17:00,
2013-03-20 09:22:00,59.6,51.3,30.09,East,101,1.2,1.2,74,0.00,CLR,,0.00,WeatherDisplay:10.37,2013-03-20 16:22:00,
2013-03-20 09:27:00,60.1,51.8,30.09,ESE,117,0.0,0.0,74,0.00,CLR,,0.00,WeatherDisplay:10.37,2013-03-20 16:27:00,
2013-03-20 09:32:00,60.5,51.8,30.09,ESE,105,2.3,0.0,73,0.00,CLR,,0.00,WeatherDisplay:10.37,2013-03-20 16:32:00,
2013-03-20 09:38:00,60.7,51.6,30.09,ESE,122,1.2,1.2,72,0.00,CLR,,0.00,WeatherDisplay:10.37,2013-03-20 16:38:00,
2013-03-20 09:43:00,61.0,51.9,30.08,ESE,122,1.2,1.2,72,0.00,CLR,,0.00,WeatherDisplay:10.37,2013-03-20 16:43:00,
2013-03-20 09:48:00,61.2,52.1,30.09,SE,128,0.0,0.0,72,0.00,CLR,,0.00,WeatherDisplay:10.37,2013-03-20 16:48:00,
2013-03-20 09:53:00,61.4,51.1,30.09,SE,132,2.3,2.3,69,0.00,CLR,,0.00,WeatherDisplay:10.37,2013-03-20 16:53:00,
2013-03-20 09:58:00,61.6,51.3,30.09,SE,126,3.5,3.5,69,0.00,CLR,,0.00,WeatherDisplay:10.37,2013-03-20 16:58:00,
2013-03-20 10:03:00,61.9,51.2,30.09,SE,129,2.3,2.3,68,0.00,CLR,,0.00,WeatherDisplay:10.37,2013-03-20 17:03:00,
2013-03-20 10:08:00,62.1,51.4,30.08,SE,129,2.3,2.3,68,0.00,CLR,,0.00,WeatherDisplay:10.37,2013-03-20 17:08:00,
2013-03-20 10:13:00,62.5,51.8,30.08,ESE,120,1.2,1.2,68,0.00,CLR,,0.00,WeatherDisplay:10.37,2013-03-20 17:13:00,
2013-03-20 10:18:00,62.9,51.8,30.08,SE,131,1.2,1.2,67,0.00,CLR,,0.00,WeatherDisplay:10.37,2013-03-20 17:18:00,
2013-03-20 10:23:00,63.1,51.6,30.08,SE,132,1.2,1.2,66,0.00,CLR,,0.00,WeatherDisplay:10.37,2013-03-20 17:23:00,
2013-03-20 10:28:00,63.4,51.8,30.08,SE,132,1.2,1.2,66,0.00,CLR,,0.00,WeatherDisplay:10.37,2013-03-20 17:28:00,
2013-03-20 10:33:00,63.7,51.7,30.08,SSE,156,1.2,1.2,65,0.00,CLR,,0.00,WeatherDisplay:10.37,2013-03-20 17:33:00,
2013-03-20 10:38:00,63.9,51.5,30.08,SE,129,1.2,1.2,64,0.00,CLR,,0.00,WeatherDisplay:10.37,2013-03-20 17:38:00,
2013-03-20 10:43:00,64.0,52.0,30.08,SE,128,1.2,1.2,65,0.00,CLR,,0.00,WeatherDisplay:10.37,2013-03-20 17:43:00,
2013-03-20 10:48:00,64.3,51.9,30.08,SSW,207,1.2,0.0,64,0.00,CLR,,0.00,WeatherDisplay:10.37,2013-03-20 17:48:00,
2013-03-20 10:53:00,64.3,51.4,30.08,SW,223,3.5,3.5,63,0.00,CLR,,0.00,WeatherDisplay:10.37,2013-03-20 17:53:00,
2013-03-20 10:58:00,64.4,52.0,30.08,SSW,197,1.2,1.2,64,0.00,CLR,,0.00,WeatherDisplay:10.37,2013-03-20 17:58:00,
2013-03-20 11:03:00,64.7,52.2,30.08,SE,142,0.0,0.0,64,0.00,CLR,,0.00,WeatherDisplay:10.37,2013-03-20 18:03:00,
2013-03-20 11:08:00,64.9,51.6,30.08,South,188,2.3,2.3,62,0.00,CLR,,0.00,WeatherDisplay:10.37,2013-03-20 18:08:00,
2013-03-20 11:13:00,65.1,52.2,30.08,SW,219,0.0,0.0,63,0.00,CLR,,0.00,WeatherDisplay:10.37,2013-03-20 18:13:00,
2013-03-20 11:18:00,65.5,52.1,30.08,SW,215,1.2,0.0,62,0.00,CLR,,0.00,WeatherDisplay:10.37,2013-03-20 18:18:00,
2013-03-20 11:23:00,65.8,52.4,30.08,SSE,148,1.2,1.2,62,0.00,CLR,,0.00,WeatherDisplay:10.37,2013-03-20 18:23:00,
2013-03-20 11:28:00,66.1,52.7,30.08,SW,215,1.2,1.2,62,0.00,CLR,,0.00,WeatherDisplay:10.37,2013-03-20 18:28:00,
2013-03-20 11:33:00,66.2,53.2,30.08,SE,129,2.3,2.3,63,0.00,CLR,,0.00,WeatherDisplay:10.37,2013-03-20 18:33:00,
2013-03-20 11:38:00,66.2,52.8,30.08,ESE,122,1.2,0.0,62,0.00,CLR,,0.00,WeatherDisplay:10.37,2013-03-20 18:38:00,
2013-03-20 11:43:00,66.4,52.5,30.09,SSW,204,2.3,2.3,61,0.00,CLR,,0.00,WeatherDisplay:10.37,2013-03-20 18:43:00,
2013-03-20 11:48:00,66.4,52.5,30.09,West,269,1.2,0.0,61,0.00,CLR,,0.00,WeatherDisplay:10.37,2013-03-20 18:48:00,
2013-03-20 11:53:00,66.4,53.4,30.09,SSE,154,1.2,1.2,63,0.00,CLR,,0.00,WeatherDisplay:10.37,2013-03-20 18:53:00,
2013-03-20 11:58:00,66.6,53.6,30.08,SW,224,1.0,1.0,63,0.00,CLR,,0.00,WeatherDisplay:10.37,2013-03-20 18:58:00,
2013-03-20 12:03:00,66.9,53.0,30.08,South,184,2.3,2.3,61,0.00,CLR,,0.00,WeatherDisplay:10.37,2013-03-20 19:03:00,
2013-03-20 12:08:00,67.0,53.5,30.08,North,350,2.3,2.3,62,0.00,CLR,,0.00,WeatherDisplay:10.37,2013-03-20 19:08:00,
2013-03-20 12:13:00,67.2,52.8,30.07,SSE,157,0.0,0.0,60,0.00,CLR,,0.00,WeatherDisplay:10.37,2013-03-20 19:13:00,
2013-03-20 12:18:00,67.5,54.0,30.08,NNW,345,1.2,1.2,62,0.00,CLR,,0.00,WeatherDisplay:10.37,2013-03-20 19:18:00,
2013-03-20 12:23:00,67.5,53.6,30.08,NNW,339,1.2,0.0,61,0.00,CLR,,0.00,WeatherDisplay:10.37,2013-03-20 19:23:00,
2013-03-20 12:28:00,67.9,53.0,30.08,NNW,330,1.2,1.2,59,0.00,CLR,,0.00,WeatherDisplay:10.37,2013-03-20 19:28:00,
2013-03-20 12:33:00,68.1,53.2,30.08,WNW,283,3.5,3.5,59,0.00,CLR,,0.00,WeatherDisplay:10.37,2013-03-20 19:33:00,
2013-03-20 12:38:00,68.2,53.8,30.08,WNW,300,1.2,1.2,60,0.00,CLR,,0.00,WeatherDisplay:10.37,2013-03-20 19:38:00,
2013-03-20 12:43:00,68.5,53.1,30.08,WNW,302,1.2,1.2,58,0.00,CLR,,0.00,WeatherDisplay:10.37,2013-03-20 19:43:00,
2013-03-20 12:48:00,68.9,54.0,30.08,North,4,3.5,3.5,59,0.00,CLR,,0.00,WeatherDisplay:10.37,2013-03-20 19:48:00,
2013-03-20 12:53:00,69.0,54.1,30.08,West,274,2.3,2.3,59,0.00,CLR,,0.00,WeatherDisplay:10.37,2013-03-20 19:53:00,
2013-03-20 12:58:00,68.9,53.5,30.08,NNW,342,2.3,2.3,58,0.00,CLR,,0.00,WeatherDisplay:10.37,2013-03-20 19:58:00,
2013-03-20 13:03:00,68.7,54.3,30.08,NW,324,1.2,1.2,60,0.00,FEW,,0.00,WeatherDisplay:10.37,2013-03-20 20:03:00,
2013-03-20 13:08:00,69.1,53.7,30.08,NW,314,0.0,0.0,58,0.00,FEW,,0.00,WeatherDisplay:10.37,2013-03-20 20:08:00,
2013-03-20 13:13:00,69.2,53.8,30.07,North,354,1.2,1.2,58,0.00,FEW,,0.00,WeatherDisplay:10.37,2013-03-20 20:13:00,
2013-03-20 13:18:00,69.2,54.3,30.07,West,263,1.0,0.0,59,0.00,FEW,,0.00,WeatherDisplay:10.37,2013-03-20 20:18:00,
2013-03-20 13:23:00,69.0,52.6,30.07,North,350,1.2,1.2,56,0.00,FEW,,0.00,WeatherDisplay:10.37,2013-03-20 20:23:00,
2013-03-20 13:28:00,68.9,54.9,30.07,North,4,1.2,1.2,61,0.00,FEW,,0.00,WeatherDisplay:10.37,2013-03-20 20:28:00,
2013-03-20 13:33:00,69.0,53.1,30.06,North,352,2.3,2.3,57,0.00,FEW,,0.00,WeatherDisplay:10.37,2013-03-20 20:33:00,
2013-03-20 13:38:00,69.2,53.3,30.06,SW,235,1.2,1.2,57,0.00,FEW,,0.00,WeatherDisplay:10.37,2013-03-20 20:38:00,
2013-03-20 13:43:00,69.6,53.7,30.06,SW,222,0.0,0.0,57,0.00,FEW,,0.00,WeatherDisplay:10.37,2013-03-20 20:43:00,
2013-03-20 13:48:00,69.8,53.9,30.06,SW,224,1.2,1.2,57,0.00,FEW,,0.00,WeatherDisplay:10.37,2013-03-20 20:48:00,
2013-03-20 13:53:00,69.9,54.0,30.06,South,188,1.2,1.2,57,0.00,FEW,,0.00,WeatherDisplay:10.37,2013-03-20 20:53:00,
2013-03-20 13:58:00,69.6,52.7,30.06,SW,222,1.2,1.2,55,0.00,FEW,,0.00,WeatherDisplay:10.37,2013-03-20 20:58:00,
2013-03-20 14:03:00,69.4,53.0,30.06,WSW,246,1.2,1.2,56,0.00,FEW,,0.00,WeatherDisplay:10.37,2013-03-20 21:03:00,
2013-03-20 14:08:00,69.4,53.5,30.05,NNW,333,2.3,2.3,57,0.00,FEW,,0.00,WeatherDisplay:10.37,2013-03-20 21:08:00,
2013-03-20 14:13:00,69.0,53.1,30.05,WNW,291,1.2,1.2,57,0.00,FEW,,0.00,WeatherDisplay:10.37,2013-03-20 21:13:00,
2013-03-20 14:18:00,69.0,53.6,30.05,WSW,238,0.0,0.0,58,0.00,FEW,,0.00,WeatherDisplay:10.37,2013-03-20 21:18:00,
2013-03-20 14:23:00,69.2,53.3,30.05,West,281,1.2,1.2,57,0.00,FEW,,0.00,WeatherDisplay:10.37,2013-03-20 21:23:00,
2013-03-20 14:28:00,69.4,53.5,30.04,SSW,210,0.0,0.1,57,0.00,FEW,,0.00,WeatherDisplay:10.37,2013-03-20 21:28:00,
2013-03-20 14:33:00,69.6,53.2,30.04,NNW,333,0.0,0.0,56,0.00,FEW,,0.00,WeatherDisplay:10.37,2013-03-20 21:33:00,
2013-03-20 14:38:00,70.0,54.1,30.04,NNW,333,0.0,0.0,57,0.00,FEW,,0.00,WeatherDisplay:10.37,2013-03-20 21:38:00,
2013-03-20 14:43:00,70.5,54.0,30.03,NNW,335,1.2,0.0,56,0.00,FEW,,0.00,WeatherDisplay:10.37,2013-03-20 21:43:00,
2013-03-20 14:48:00,70.9,54.9,30.03,NNW,335,1.0,0.0,57,0.00,FEW,,0.00,WeatherDisplay:10.37,2013-03-20 21:48:00,
2013-03-20 14:53:00,71.0,55.0,30.03,NNW,335,0.0,0.0,57,0.00,FEW,,0.00,WeatherDisplay:10.37,2013-03-20 21:53:00,
2013-03-20 14:58:00,71.3,54.3,30.03,North,5,2.3,2.3,55,0.00,FEW,,0.00,WeatherDisplay:10.37,2013-03-20 21:58:00,
2013-03-20 15:03:00,71.3,54.3,30.03,WNW,291,1.0,1.0,55,0.00,FEW,,0.00,WeatherDisplay:10.37,2013-03-20 22:03:00,
2013-03-20 15:08:00,71.1,53.1,30.03,NW,308,1.2,1.2,53,0.00,FEW,,0.00,WeatherDisplay:10.37,2013-03-20 22:08:00,
2013-03-20 15:13:00,70.9,53.9,30.03,NNW,345,1.2,1.2,55,0.00,FEW,,0.00,WeatherDisplay:10.37,2013-03-20 22:13:00,
2013-03-20 15:18:00,70.7,53.2,30.03,NW,322,2.0,2.0,54,0.00,CLR,,0.00,WeatherDisplay:10.37,2013-03-20 22:18:00,
2013-03-20 15:23:00,70.5,54.5,30.03,WNW,290,1.2,1.2,57,0.00,CLR,,0.00,WeatherDisplay:10.37,2013-03-20 22:23:00,
2013-03-20 15:28:00,70.7,53.7,30.03,WSW,254,1.2,0.0,55,0.00,CLR,,0.00,WeatherDisplay:10.37,2013-03-20 22:28:00,
2013-03-20 15:33:00,70.9,54.4,30.03,WSW,246,1.2,1.2,56,0.00,FEW,,0.00,WeatherDisplay:10.37,2013-03-20 22:33:00,
2013-03-20 15:38:00,70.4,54.0,30.03,SSW,203,1.2,0.0,56,0.00,FEW,,0.00,WeatherDisplay:10.37,2013-03-20 22:38:00,
2013-03-20 15:43:00,70.3,53.9,30.03,WNW,288,1.2,1.2,56,0.00,FEW,,0.00,WeatherDisplay:10.37,2013-03-20 22:43:00,
2013-03-20 15:48:00,70.1,54.2,30.03,WNW,293,0.0,0.1,57,0.00,SCT,,0.00,WeatherDisplay:10.37,2013-03-20 22:48:00,
2013-03-20 15:53:00,70.2,54.2,30.03,South,174,1.2,0.0,57,0.00,SCT,,0.00,WeatherDisplay:10.37,2013-03-20 22:53:00,
2013-03-20 15:58:00,70.1,54.2,30.03,ESE,120,1.2,0.0,57,0.00,SCT,,0.00,WeatherDisplay:10.37,2013-03-20 22:58:00,
2013-03-20 16:03:00,69.9,54.0,30.03,WNW,283,1.2,0.0,57,0.00,SCT,,0.00,WeatherDisplay:10.37,2013-03-20 23:03:00,
2013-03-20 16:08:00,70.0,54.1,30.03,West,262,1.2,1.2,57,0.00,SCT,,0.00,WeatherDisplay:10.37,2013-03-20 23:08:00,
2013-03-20 16:13:00,70.0,54.1,30.03,West,269,1.2,0.0,57,0.00,SCT,,0.00,WeatherDisplay:10.37,2013-03-20 23:13:00,
2013-03-20 16:18:00,69.9,53.5,30.03,NW,316,1.2,1.2,56,0.00,BKN,,0.00,WeatherDisplay:10.37,2013-03-20 23:18:00,
2013-03-20 16:23:00,69.6,53.7,30.03,NNW,333,1.2,0.0,57,0.00,BKN,,0.00,WeatherDisplay:10.37,2013-03-20 23:23:00,
2013-03-20 16:28:00,69.4,53.0,30.03,NNW,339,1.2,1.2,56,0.00,BKN,,0.00,WeatherDisplay:10.37,2013-03-20 23:28:00,
2013-03-20 16:33:00,69.2,53.3,30.02,NNW,347,1.2,1.2,57,0.00,BKN,,0.00,WeatherDisplay:10.37,2013-03-20 23:33:00,
2013-03-20 16:38:00,69.2,53.3,30.02,NW,322,0.0,0.0,57,0.00,BKN,,0.00,WeatherDisplay:10.37,2013-03-20 23:38:00,
2013-03-20 16:43:00,69.2,53.3,30.02,North,8,1.2,1.2,57,0.00,BKN,,0.00,WeatherDisplay:10.37,2013-03-20 23:43:00,
2013-03-20 16:48:00,69.3,53.9,30.02,NNW,341,1.2,1.2,58,0.00,OVC,,0.00,WeatherDisplay:10.37,2013-03-20 23:48:00,
2013-03-20 16:53:00,69.3,53.9,30.02,WSW,256,1.2,1.2,58,0.00,OVC,,0.00,WeatherDisplay:10.37,2013-03-20 23:53:00,
2013-03-20 16:58:00,69.2,53.8,30.02,West,267,1.2,0.0,58,0.00,OVC,,0.00,WeatherDisplay:10.37,2013-03-20 23:58:00,
2013-03-20 17:03:00,69.2,54.7,30.02,West,274,1.2,0.0,60,0.00,OVC,,0.00,WeatherDisplay:10.37,2013-03-21 00:03:00,
2013-03-20 17:08:00,69.3,55.3,30.02,WNW,300,1.2,0.0,61,0.00,OVC,,0.00,WeatherDisplay:10.37,2013-03-21 00:08:00,
2013-03-20 17:13:00,69.2,55.2,30.01,West,277,0.0,0.0,61,0.00,OVC,,0.00,WeatherDisplay:10.37,2013-03-21 00:13:00,
2013-03-20 17:18:00,68.8,54.3,30.01,WNW,296,3.5,3.5,60,0.00,OVC,,0.00,WeatherDisplay:10.37,2013-03-21 00:18:00,
2013-03-20 17:23:00,68.5,54.5,30.01,WNW,302,2.3,2.3,61,0.00,OVC,,0.00,WeatherDisplay:10.37,2013-03-21 00:23:00,
2013-03-20 17:28:00,68.2,53.8,30.01,North,354,3.5,3.5,60,0.00,OVC,,0.00,WeatherDisplay:10.37,2013-03-21 00:28:00,
2013-03-20 17:33:00,68.0,54.9,30.00,NW,325,0.0,0.3,63,0.00,OVC,,0.00,WeatherDisplay:10.37,2013-03-21 00:33:00,
2013-03-20 17:38:00,67.8,54.7,30.00,NNW,342,2.3,2.3,63,0.00,OVC,,0.00,WeatherDisplay:10.37,2013-03-21 00:38:00,
2013-03-20 17:43:00,67.6,55.0,30.00,NW,315,2.3,2.3,64,0.00,OVC,,0.00,WeatherDisplay:10.37,2013-03-21 00:43:00,
2013-03-20 17:48:00,67.6,54.6,30.00,NW,305,1.2,1.2,63,0.00,BKN,,0.00,WeatherDisplay:10.37,2013-03-21 00:48:00,
2013-03-20 17:53:00,67.6,53.7,30.00,NNW,333,2.3,2.3,61,0.00,BKN,,0.00,WeatherDisplay:10.37,2013-03-21 00:53:00,
2013-03-20 17:58:00,67.6,53.7,30.00,North,349,2.3,2.3,61,0.00,BKN,,0.00,WeatherDisplay:10.37,2013-03-21 00:58:00,
2013-03-20 18:03:00,67.7,53.8,30.00,NW,325,1.2,1.2,61,0.00,SCT,,0.00,WeatherDisplay:10.37,2013-03-21 01:03:00,
2013-03-20 18:08:00,67.7,53.8,30.00,West,281,2.3,2.3,61,0.00,SCT,,0.00,WeatherDisplay:10.37,2013-03-21 01:08:00,
2013-03-20 18:13:00,67.7,53.8,30.00,West,281,0.0,0.0,61,0.00,SCT,,0.00,WeatherDisplay:10.37,2013-03-21 01:13:00,
2013-03-20 18:18:00,67.7,54.2,30.00,WNW,302,1.2,0.0,62,0.00,SCT,,0.00,WeatherDisplay:10.37,2013-03-21 01:18:00,
2013-03-20 18:23:00,67.6,53.7,30.00,NW,304,0.0,0.0,61,0.00,SCT,,0.00,WeatherDisplay:10.37,2013-03-21 01:23:00,
2013-03-20 18:28:00,67.6,53.7,30.00,NW,322,0.0,0.1,61,0.00,SCT,,0.00,WeatherDisplay:10.37,2013-03-21 01:28:00,
2013-03-20 18:33:00,67.5,53.6,30.00,WNW,283,0.0,0.0,61,0.00,SCT,,0.00,WeatherDisplay:10.37,2013-03-21 01:33:00,
2013-03-20 18:38:00,67.2,53.3,30.00,NW,316,1.2,0.0,61,0.00,SCT,,0.00,WeatherDisplay:10.37,2013-03-21 01:38:00,
2013-03-20 18:43:00,67.1,53.6,30.01,NNW,328,0.0,0.0,62,0.00,SCT,,0.00,WeatherDisplay:10.37,2013-03-21 01:43:00,
2013-03-20 18:48:00,66.9,53.5,30.01,NNW,328,0.0,0.0,62,0.00,BKN,,0.00,WeatherDisplay:10.37,2013-03-21 01:48:00,
2013-03-20 18:53:00,66.7,53.7,30.01,NW,324,0.0,0.0,63,0.00,BKN,,0.00,WeatherDisplay:10.37,2013-03-21 01:53:00,
2013-03-20 18:58:00,66.5,53.9,30.01,NW,321,0.0,0.0,64,0.00,BKN,,0.00,WeatherDisplay:10.37,2013-03-21 01:58:00,
2013-03-20 19:03:00,66.2,54.1,30.01,NW,322,0.0,0.0,65,0.00,SCT,,0.00,WeatherDisplay:10.37,2013-03-21 02:03:00,
2013-03-20 19:08:00,66.0,53.9,30.01,NW,322,0.0,0.0,65,0.00,SCT,,0.00,WeatherDisplay:10.37,2013-03-21 02:08:00,
2013-03-20 19:13:00,65.8,53.7,30.01,NW,321,0.0,0.0,65,0.00,SCT,,0.00,WeatherDisplay:10.37,2013-03-21 02:13:00,
2013-03-20 19:18:00,65.6,53.9,30.01,NW,322,0.0,0.0,66,0.00,SCT,,0.00,WeatherDisplay:10.37,2013-03-21 02:18:00,
2013-03-20 19:23:00,65.5,53.8,30.01,NW,322,0.0,0.0,66,0.00,SCT,,0.00,WeatherDisplay:10.37,2013-03-21 02:23:00,
2013-03-20 19:28:00,65.2,54.0,30.02,NW,322,0.0,0.0,67,0.00,SCT,,0.00,WeatherDisplay:10.37,2013-03-21 02:28:00,
2013-03-20 19:33:00,65.0,54.2,30.01,NW,322,0.0,0.0,68,0.00,SCT,,0.00,WeatherDisplay:10.37,2013-03-21 02:33:00,
2013-03-20 19:38:00,64.7,54.3,30.01,NW,322,0.0,0.0,69,0.00,SCT,,0.00,WeatherDisplay:10.37,2013-03-21 02:38:00,
2013-03-20 19:43:00,64.4,54.4,30.01,NW,322,0.0,0.0,70,0.00,SCT,,0.00,WeatherDisplay:10.37,2013-03-21 02:43:00,
2013-03-20 19:48:00,64.1,54.9,30.01,NW,322,0.0,0.0,72,0.00,FEW,,0.00,WeatherDisplay:10.37,2013-03-21 02:48:00,
2013-03-20 19:53:00,63.9,54.7,30.01,NW,322,0.0,0.0,72,0.00,FEW,,0.00,WeatherDisplay:10.37,2013-03-21 02:53:00,
2013-03-20 19:58:00,63.6,55.2,30.01,NW,322,0.0,0.0,74,0.00,FEW,,0.00,WeatherDisplay:10.37,2013-03-21 02:58:00,
2013-03-20 20:03:00,63.3,54.9,30.01,NW,322,0.0,0.0,74,0.00,FEW,,0.00,WeatherDisplay:10.37,2013-03-21 03:03:00,
2013-03-20 20:08:00,63.1,55.0,30.02,NW,322,0.0,0.0,75,0.00,FEW,,0.00,WeatherDisplay:10.37,2013-03-21 03:08:00,
2013-03-20 20:13:00,62.9,54.9,30.01,NW,321,0.0,0.0,75,0.00,FEW,,0.00,WeatherDisplay:10.37,2013-03-21 03:13:00,
2013-03-20 20:18:00,62.8,54.8,30.02,NW,322,0.0,0.0,75,0.00,CLR,,0.00,WeatherDisplay:10.37,2013-03-21 03:18:00,
2013-03-20 20:23:00,62.5,54.8,30.01,NW,322,0.0,0.0,76,0.00,CLR,,0.00,WeatherDisplay:10.37,2013-03-21 03:23:00,
2013-03-20 20:28:00,62.2,54.9,30.01,NW,322,0.0,0.0,77,0.00,CLR,,0.00,WeatherDisplay:10.37,2013-03-21 03:28:00,
2013-03-20 20:33:00,61.8,54.5,30.01,NW,322,0.0,0.0,77,0.00,CLR,,0.00,WeatherDisplay:10.37,2013-03-21 03:33:00,
2013-03-20 20:38:00,61.5,54.6,30.01,NW,322,0.0,0.0,78,0.00,CLR,,0.00,WeatherDisplay:10.37,2013-03-21 03:38:00,
2013-03-20 20:43:00,61.1,54.5,30.01,NW,322,0.0,0.0,79,0.00,CLR,,0.00,WeatherDisplay:10.37,2013-03-21 03:43:00,
2013-03-20 20:48:00,60.7,54.1,30.01,NW,322,0.0,0.0,79,0.00,FEW,,0.00,WeatherDisplay:10.37,2013-03-21 03:48:00,
2013-03-20 20:53:00,60.3,54.1,30.02,NW,322,0.0,0.0,80,0.00,FEW,,0.00,WeatherDisplay:10.37,2013-03-21 03:53:00,
2013-03-20 20:58:00,60.2,54.3,30.02,NW,322,0.0,0.0,81,0.00,FEW,,0.00,WeatherDisplay:10.37,2013-03-21 03:58:00,
2013-03-20 21:00:00,60.1,54.2,30.02,NW,322,0.0,0.0,81,0.00,FEW,,0.00,WeatherDisplay:10.37,2013-03-21 04:00:00,
2013-03-20 21:01:00,60.1,54.6,30.01,NW,322,0.0,0.0,82,0.00,CLR,,0.00,WeatherDisplay:10.37,2013-03-21 04:01:00,
2013-03-20 21:06:00,59.9,54.1,30.02,NW,322,0.0,0.0,81,0.00,CLR,,0.00,WeatherDisplay:10.37,2013-03-21 04:06:00,
2013-03-20 21:12:00,59.6,54.1,30.02,NW,322,0.0,0.0,82,0.00,CLR,,0.00,WeatherDisplay:10.37,2013-03-21 04:12:00,
2013-03-20 21:17:00,59.3,54.1,30.02,NW,322,0.0,0.0,83,0.00,CLR,,0.00,WeatherDisplay:10.37,2013-03-21 04:17:00,
2013-03-20 21:22:00,59.2,54.4,30.02,NW,322,0.0,0.0,84,0.00,CLR,,0.00,WeatherDisplay:10.37,2013-03-21 04:22:00,
2013-03-20 21:27:00,58.9,53.7,30.02,NW,322,0.0,0.0,83,0.00,CLR,,0.00,WeatherDisplay:10.37,2013-03-21 04:27:00,
2013-03-20 21:32:00,58.8,54.0,30.02,NW,322,0.0,0.0,84,0.00,CLR,,0.00,WeatherDisplay:10.37,2013-03-21 04:32:00,
2013-03-20 21:37:00,58.7,53.9,30.02,NW,322,0.0,0.0,84,0.00,CLR,,0.00,WeatherDisplay:10.37,2013-03-21 04:37:00,
2013-03-20 21:42:00,58.4,53.6,30.02,NW,322,0.0,0.0,84,0.00,CLR,,0.00,WeatherDisplay:10.37,2013-03-21 04:42:00,
2013-03-20 21:47:00,58.2,53.4,30.02,NW,322,0.0,0.0,84,0.00,CLR,,0.00,WeatherDisplay:10.37,2013-03-21 04:47:00,
2013-03-20 21:52:00,58.1,53.6,30.02,NW,322,0.0,0.0,85,0.00,CLR,,0.00,WeatherDisplay:10.37,2013-03-21 04:52:00,
2013-03-20 21:57:00,58.0,53.5,30.02,NW,322,0.0,0.0,85,0.00,CLR,,0.00,WeatherDisplay:10.37,2013-03-21 04:57:00,
2013-03-20 22:02:00,58.0,53.2,30.02,NW,322,0.0,0.0,84,0.00,CLR,,0.00,WeatherDisplay:10.37,2013-03-21 05:02:00,
2013-03-20 22:07:00,58.0,53.2,30.02,NW,324,0.0,0.0,84,0.00,CLR,,0.00,WeatherDisplay:10.37,2013-03-21 05:07:00,
2013-03-20 22:12:00,58.0,53.2,30.02,NW,325,0.0,0.0,84,0.00,CLR,,0.00,WeatherDisplay:10.37,2013-03-21 05:12:00,
2013-03-20 22:17:00,58.1,53.0,30.02,NW,324,0.0,0.0,83,0.00,CLR,,0.00,WeatherDisplay:10.37,2013-03-21 05:17:00,
2013-03-20 22:22:00,58.3,53.2,30.02,NW,325,0.0,0.0,83,0.00,CLR,,0.00,WeatherDisplay:10.37,2013-03-21 05:22:00,
2013-03-20 22:27:00,58.3,52.8,30.02,NW,325,0.0,0.0,82,0.00,CLR,,0.00,WeatherDisplay:10.37,2013-03-21 05:27:00,
2013-03-20 22:32:00,58.2,52.7,30.02,NW,324,0.0,0.0,82,0.00,CLR,,0.00,WeatherDisplay:10.37,2013-03-21 05:32:00,
2013-03-20 22:37:00,57.9,52.4,30.02,NW,325,0.0,0.0,82,0.00,CLR,,0.00,WeatherDisplay:10.37,2013-03-21 05:37:00,
2013-03-20 22:43:00,57.6,52.1,30.02,NW,325,0.0,0.0,82,0.00,CLR,,0.00,WeatherDisplay:10.37,2013-03-21 05:43:00,
2013-03-20 22:48:00,57.2,51.8,30.02,NW,325,0.0,0.0,82,0.00,CLR,,0.00,WeatherDisplay:10.37,2013-03-21 05:48:00,
2013-03-20 22:53:00,56.9,51.8,30.02,NW,324,0.0,0.0,83,0.00,CLR,,0.00,WeatherDisplay:10.37,2013-03-21 05:53:00,
2013-03-20 22:58:00,56.6,51.5,30.02,NW,325,0.0,0.0,83,0.00,CLR,,0.00,WeatherDisplay:10.37,2013-03-21 05:58:00,
2013-03-20 23:03:00,56.3,51.5,30.02,NW,325,0.0,0.0,84,0.00,CLR,,0.00,WeatherDisplay:10.37,2013-03-21 06:03:00,
2013-03-20 23:08:00,56.1,51.3,30.02,NW,325,0.0,0.0,84,0.00,CLR,,0.00,WeatherDisplay:10.37,2013-03-21 06:08:00,
2013-03-20 23:13:00,55.8,51.7,30.02,NW,325,0.0,0.0,86,0.00,CLR,,0.00,WeatherDisplay:10.37,2013-03-21 06:13:00,
2013-03-20 23:18:00,55.8,52.0,30.02,NW,324,0.0,0.0,87,0.00,CLR,,0.00,WeatherDisplay:10.37,2013-03-21 06:18:00,
2013-03-20 23:23:00,55.7,51.9,30.02,NW,325,0.0,0.0,87,0.00,CLR,,0.00,WeatherDisplay:10.37,2013-03-21 06:23:00,
2013-03-20 23:28:00,55.5,51.7,30.02,NW,324,0.0,0.0,87,0.00,CLR,,0.00,WeatherDisplay:10.37,2013-03-21 06:28:00,
2013-03-20 23:33:00,55.4,51.6,30.02,NW,324,0.0,0.0,87,0.00,CLR,,0.00,WeatherDisplay:10.37,2013-03-21 06:33:00,
2013-03-20 23:38:00,55.3,51.5,30.02,NW,325,0.0,0.0,87,0.00,CLR,,0.00,WeatherDisplay:10.37,2013-03-21 06:38:00,
2013-03-20 23:43:00,55.1,51.3,30.02,NW,324,0.0,0.0,87,0.00,CLR,,0.00,WeatherDisplay:10.37,2013-03-21 06:43:00,
2013-03-20 23:48:00,54.9,51.1,30.02,NW,324,0.0,0.0,87,0.00,CLR,,0.00,WeatherDisplay:10.37,2013-03-21 06:48:00,
2013-03-20 23:53:00,54.7,50.9,30.01,NW,325,0.0,0.0,87,0.00,CLR,,0.00,WeatherDisplay:10.37,2013-03-21 06:53:00,
2013-03-20 23:58:00,54.4,50.6,30.01,NW,325,0.0,0.0,87,0.00,CLR,,0.00,WeatherDisplay:10.37,2013-03-21 06:58:00,